[[{"header":{"parameterUnit":"m.s-1","parameterCategory":1,"la1":30.2991,"la2":30.254,"lo1":-89.0895,"lo2":-89.0444,"dy":0.0017,"dx":0.0017,"nx":28,"ny":28,"refTime":"2023-09-02T09:00:00:Z","depth":0,"parameterNumber":2,"parameterNumberName":"U-component_of_WINDS"},"data":[0,0,0,0,0,0,0,0,0,0,0,0,0,0,0,0,0,0,0,0,0,0,0,0,0,0,0,0,0,0,0,0,0,0,0,0,0,0,0,0,0,0,0,0,0,0,0,0,0,0,0,0,0,0,0,0,0,0,-0.873,-0.8729,0,-0.8679,-0.8678,-0.8678,-0.8628,-0.8628,-0.8627,-0.8626,-0.8572,-0.8571,-0.857,0,0,0,0,0,0,0,0,0,0,0,0,0,-0.8784,-0.8783,-0.873,-0.8729,-0.8729,-0.8679,-0.8678,-0.8677,-0.8628,-0.8628,-0.8627,-0.8626,-0.8572,-0.8571,-0.857,0,0,0,0,0,0,0,0,0,0,0,0,0,-0.8749,-0.8783,-0.873,-0.8698,-0.8695,-0.8679,-0.8678,-0.8677,-0.8629,-0.8628,-0.8627,-0.8626,-0.8572,-0.8571,-0.857,-0.8581,0,0,-0.8566,-0.8565,0,0,0,0,0,0,0,0,-0.8751,-0.8747,-0.8704,-0.8701,-0.8697,-0.8659,-0.8677,-0.8645,-0.8629,-0.8654,-0.8626,-0.8625,-0.8601,-0.8598,-0.859,-0.8578,-0.8576,-0.8566,-0.8565,-0.8565,-0.8564,0,0,0,0,0,0,0,-0.8754,-0.8749,-0.871,-0.8703,-0.8699,-0.8686,-0.868,-0.8671,-0.8633,-0.8651,-0.8648,-0.8642,-0.8599,-0.8592,-0.8588,-0.8575,-0.8566,-0.8565,-0.8564,-0.8563,-0.8569,-0.8569,0,0,0,0,0,0,-0.8761,-0.8751,-0.8711,-0.8708,-0.8722,-0.8686,-0.8679,-0.8672,-0.8633,-0.8627,-0.8643,-0.864,-0.8594,-0.859,-0.8586,-0.8596,-0.8565,-0.8563,-0.8563,-0.8568,-0.8569,-0.857,0,0,0,0,0,0,-0.8763,-0.8758,-0.8713,-0.8729,-0.8722,-0.8686,-0.8678,-0.8671,-0.8664,-0.8627,-0.862,-0.8642,-0.8593,-0.8588,-0.8582,-0.8593,-0.8563,-0.8562,-0.8567,-0.8568,-0.8569,-0.8615,0,0,0,0,0,0,-0.8764,-0.8759,-0.8763,-0.8729,-0.8722,-0.8711,-0.8679,-0.8671,-0.8662,-0.8657,-0.8624,-0.8618,-0.8592,-0.8585,-0.8581,-0.8591,-0.8561,-0.8565,-0.8567,-0.8569,-0.8613,-0.8618,-0.8623,0,0,0,0,0,-0.8766,-0.8778,-0.8763,-0.8759,-0.8726,-0.8712,-0.8707,-0.8678,-0.8663,-0.8666,-0.8643,-0.8619,-0.8593,-0.8585,-0.858,-0.859,-0.8565,-0.8567,-0.8569,-0.861,-0.8617,-0.8623,0,0,0,0,0,0,-0.8813,-0.8773,-0.8756,-0.8757,-0.8738,-0.8704,-0.8707,-0.8686,-0.867,-0.8667,-0.8631,-0.8624,-0.8622,-0.8605,-0.8597,-0.8598,-0.8575,-0.8577,-0.8608,-0.8614,-0.8619,-0.8623,-0.8559,0,0,0,0,0,-0.8823,-0.8816,-0.8781,-0.8785,-0.8776,-0.8744,-0.8736,-0.8715,-0.8694,-0.8686,-0.8662,-0.8641,-0.8628,-0.8621,-0.8607,-0.861,-0.8602,-0.8615,-0.862,-0.8624,-0.8625,-0.8625,-0.863,-0.8577,-0.8577,-0.8576,0,0,-0.8844,-0.8822,-0.8819,-0.8794,-0.8776,-0.8769,-0.8737,-0.873,-0.8724,-0.8684,-0.8677,-0.8659,-0.8634,-0.8633,-0.8631,-0.8619,-0.8638,-0.8627,-0.863,-0.8629,-0.8628,-0.8633,-0.8637,-0.8578,-0.8578,-0.8577,0,0,-0.8879,-0.8861,-0.8862,-0.8846,-0.8821,-0.8799,-0.88,-0.8768,-0.8755,-0.8748,-0.8718,-0.8709,-0.8688,-0.8671,-0.866,-0.8689,-0.8666,-0.8685,-0.8711,-0.8711,-0.8715,-0.8719,-0.8728,-0.8732,-0.8687,-0.8687,-0.8687,0,-0.8908,-0.8896,-0.8866,-0.8861,-0.885,-0.8815,-0.8815,-0.8801,-0.8772,-0.8766,-0.8753,-0.8725,-0.8706,-0.87,-0.8707,-0.8699,-0.8698,-0.8688,-0.8718,-0.8721,-0.8724,-0.8732,-0.8736,-0.8689,-0.8689,-0.8689,-0.8688,0,-0.8933,-0.8925,-0.8929,-0.8903,-0.8893,-0.8891,-0.8859,-0.8853,-0.8833,-0.8812,-0.8805,-0.8781,-0.8761,-0.8759,-0.8739,-0.875,-0.8743,-0.8724,-0.8701,-0.8732,-0.8739,-0.8742,-0.8693,-0.8692,-0.8691,-0.8691,0,0,-0.8994,-0.8952,-0.8954,-0.8941,-0.8911,-0.8904,-0.89,-0.8882,-0.8876,-0.8858,-0.8853,-0.8836,-0.8819,-0.8806,-0.8785,-0.8785,-0.8808,-0.8766,-0.8765,-0.8774,-0.8818,-0.8831,-0.8835,-0.8794,-0.8794,-0.8794,-0.882,0,-0.9022,-0.9014,-0.8987,-0.8986,-0.8978,-0.8945,-0.8941,-0.8922,-0.8903,-0.8893,-0.8871,-0.8859,-0.8838,-0.883,-0.8829,-0.8806,-0.8816,-0.8804,-0.8788,-0.8787,-0.8794,-0.8839,-0.8853,-0.8878,-0.8822,-0.8823,-0.8823,0,-0.9054,-0.9039,-0.9038,-0.9008,-0.9003,-0.9001,-0.8982,-0.8973,-0.895,-0.8936,-0.8922,-0.8898,-0.8892,-0.8871,-0.8861,-0.8853,-0.8845,-0.8832,-0.8833,-0.8829,-0.8806,-0.8836,-0.8885,-0.8889,-0.8827,-0.8827,-0.8827,0,-0.9098,-0.9077,-0.9073,-0.9064,-0.9029,-0.9028,-0.9013,-0.899,-0.8981,-0.8964,-0.8957,-0.894,-0.893,-0.8917,-0.8888,-0.8876,-0.8881,-0.8858,-0.8868,-0.8869,-0.887,-0.887,-0.8918,-0.8867,-0.8867,-0.8867,-0.8867,0,-0.9132,-0.9132,-0.9092,-0.909,-0.9089,-0.9058,-0.9058,-0.904,-0.902,-0.9013,-0.8983,-0.8977,-0.8941,-0.893,-0.8908,-0.8903,-0.8899,-0.8886,-0.888,-0.8888,-0.889,-0.8882,-0.8879,-0.8868,-0.8867,-0.8867,-0.8867,0,-0.9179,-0.9153,-0.9147,-0.9115,-0.9107,-0.9108,-0.908,-0.9076,-0.9056,-0.9047,-0.9044,-0.9011,-0.8997,-0.8968,-0.8946,-0.8931,-0.8931,-0.8921,-0.8939,-0.8935,-0.8946,-0.8945,-0.8989,-0.8993,-0.8941,-0.8942,-0.8942,0,-0.9202,-0.9202,-0.917,-0.9164,-0.9151,-0.9141,-0.9131,-0.9101,-0.9092,-0.9067,-0.9066,-0.905,-0.9036,-0.9015,-0.8989,-0.8972,-0.896,-0.8977,-0.8958,-0.8966,-0.8959,-0.8959,-0.8959,-0.8981,-0.8982,-0.8983,-0.8983,0,-0.9245,-0.9232,-0.922,-0.9204,-0.9193,-0.9179,-0.9162,-0.9158,-0.9124,-0.9115,-0.9102,-0.9091,-0.9069,-0.9053,-0.9032,-0.9016,-0.8993,-0.899,-0.8991,-0.8998,-0.9008,-0.9002,-0.8949,-0.8988,-0.8988,-0.8987,-0.8987,-0.8987,-0.928,-0.9278,-0.9256,-0.9243,-0.9228,-0.9213,-0.9208,-0.9187,-0.9176,-0.9156,-0.9139,-0.9126,-0.9103,-0.9073,-0.9059,-0.9048,-0.9037,-0.9039,-0.9039,-0.904,-0.9043,-0.9012,-0.9044,-0.9044,-0.9044,-0.9044,-0.9044,0,-0.932,-0.9305,-0.9294,-0.9272,-0.9262,-0.9243,-0.9224,-0.9217,-0.9206,-0.9188,-0.9174,-0.9158,-0.9143,-0.9116,-0.9098,-0.9095,-0.9084,-0.9091,-0.909,-0.9087,-0.9055,-0.9055,-0.91,-0.91,-0.91,-0.91,-0.91,-0.91,-0.934,-0.9336,-0.932,-0.9308,-0.9291,-0.928,-0.927,-0.9256,-0.9241,-0.9225,-0.9212,-0.9195,-0.9173,-0.9154,-0.9139,-0.9131,-0.9125,-0.9136,-0.9125,-0.9095,-0.9089,-0.9084,-0.9084,-0.9135,-0.9135,-0.9158,-0.9158,-0.9158]},{"header":{"parameterUnit":"m.s-1","parameterCategory":1,"la1":30.2991,"la2":30.254,"lo1":-89.0895,"lo2":-89.0444,"dy":0.0017,"dx":0.0017,"nx":28,"ny":28,"refTime":"2023-09-02T09:00:00:Z","depth":0,"parameterNumber":3,"parameterNumberName":"V-component_of_WINDS"},"data":[0,0,0,0,0,0,0,0,0,0,0,0,0,0,0,0,0,0,0,0,0,0,0,0,0,0,0,0,0,0,0,0,0,0,0,0,0,0,0,0,0,0,0,0,0,0,0,0,0,0,0,0,0,0,0,0,0,0,-1.0613,-1.0614,0,-1.0639,-1.0639,-1.0639,-1.0625,-1.0624,-1.0623,-1.0623,-1.0648,-1.0649,-1.065,0,0,0,0,0,0,0,0,0,0,0,0,0,-1.0552,-1.0553,-1.0613,-1.0614,-1.0614,-1.0639,-1.0639,-1.0639,-1.0625,-1.0624,-1.0623,-1.0622,-1.0647,-1.0649,-1.065,0,0,0,0,0,0,0,0,0,0,0,0,0,-1.0578,-1.0553,-1.0613,-1.061,-1.061,-1.0639,-1.0639,-1.0639,-1.0625,-1.0624,-1.0623,-1.0622,-1.0647,-1.0649,-1.0651,-1.0684,0,0,-1.0657,-1.0657,0,0,0,0,0,0,0,0,-1.0576,-1.058,-1.061,-1.061,-1.061,-1.0628,-1.0626,-1.0654,-1.0625,-1.0619,-1.0623,-1.0621,-1.0642,-1.0644,-1.0651,-1.0685,-1.0686,-1.0657,-1.0658,-1.0659,-1.0659,0,0,0,0,0,0,0,-1.0575,-1.0579,-1.0623,-1.061,-1.0611,-1.0607,-1.0609,-1.0632,-1.0636,-1.062,-1.0619,-1.0622,-1.0642,-1.0649,-1.0652,-1.0687,-1.0657,-1.0658,-1.066,-1.066,-1.0751,-1.0752,0,0,0,0,0,0,-1.0573,-1.0578,-1.0623,-1.0624,-1.059,-1.0609,-1.0612,-1.0623,-1.0636,-1.0637,-1.0623,-1.0621,-1.0646,-1.0649,-1.0652,-1.0694,-1.0659,-1.0661,-1.0662,-1.075,-1.0751,-1.0753,0,0,0,0,0,0,-1.0572,-1.0577,-1.0622,-1.0601,-1.0606,-1.0611,-1.0624,-1.0624,-1.0632,-1.0638,-1.0639,-1.063,-1.0646,-1.065,-1.0677,-1.0695,-1.0662,-1.0663,-1.0748,-1.075,-1.0752,-1.0776,0,0,0,0,0,0,-1.057,-1.0577,-1.059,-1.0601,-1.0607,-1.0646,-1.0625,-1.0625,-1.0635,-1.0633,-1.0645,-1.0646,-1.0645,-1.0674,-1.0679,-1.0697,-1.0665,-1.0747,-1.0749,-1.0751,-1.0774,-1.0779,-1.0783,0,0,0,0,0,-1.0568,-1.0595,-1.0591,-1.0596,-1.0623,-1.0647,-1.065,-1.0649,-1.0637,-1.065,-1.0654,-1.0646,-1.0691,-1.0677,-1.0682,-1.0701,-1.0746,-1.0748,-1.0751,-1.0772,-1.0778,-1.0783,0,0,0,0,0,0,-1.0585,-1.0597,-1.0592,-1.0623,-1.0634,-1.0644,-1.0661,-1.0655,-1.0669,-1.0667,-1.0664,-1.0667,-1.0696,-1.0701,-1.0684,-1.0735,-1.0717,-1.0721,-1.0731,-1.0736,-1.0741,-1.074,-1.0667,0,0,0,0,0,-1.0593,-1.0611,-1.062,-1.0647,-1.0653,-1.0656,-1.0666,-1.0664,-1.0675,-1.068,-1.0686,-1.0697,-1.0714,-1.0725,-1.0741,-1.0774,-1.0777,-1.079,-1.0794,-1.0798,-1.0802,-1.0821,-1.0827,-1.0761,-1.0761,-1.0761,0,0,-1.0609,-1.0617,-1.0629,-1.0651,-1.0659,-1.0678,-1.066,-1.068,-1.0695,-1.0683,-1.0709,-1.0714,-1.0726,-1.0757,-1.0771,-1.0762,-1.082,-1.0801,-1.0804,-1.0806,-1.0825,-1.0831,-1.0836,-1.0763,-1.0763,-1.0763,0,0,-1.0648,-1.0655,-1.068,-1.0688,-1.0702,-1.0704,-1.0709,-1.072,-1.0724,-1.075,-1.0742,-1.0758,-1.0787,-1.0797,-1.0805,-1.0848,-1.0842,-1.0853,-1.0877,-1.0896,-1.0901,-1.0906,-1.0923,-1.0929,-1.0857,-1.0857,-1.0857,0,-1.0666,-1.0695,-1.0693,-1.0715,-1.0725,-1.0715,-1.074,-1.0748,-1.0766,-1.0773,-1.0763,-1.08,-1.0807,-1.0841,-1.0851,-1.0858,-1.0865,-1.0853,-1.0901,-1.0905,-1.091,-1.0926,-1.0932,-1.0858,-1.0858,-1.0858,-1.0858,0,-1.0717,-1.0737,-1.0755,-1.0773,-1.0785,-1.0808,-1.081,-1.0822,-1.0819,-1.0822,-1.085,-1.0858,-1.0876,-1.0884,-1.088,-1.0917,-1.0912,-1.0901,-1.0883,-1.0918,-1.0933,-1.0939,-1.0861,-1.086,-1.086,-1.0859,0,0,-1.0768,-1.0785,-1.0792,-1.0801,-1.0815,-1.083,-1.0853,-1.0871,-1.0883,-1.0895,-1.0914,-1.0939,-1.093,-1.094,-1.0937,-1.0954,-1.099,-1.0941,-1.0942,-1.0952,-1.1032,-1.1042,-1.1049,-1.0984,-1.0986,-1.0986,-1.1032,0,-1.0809,-1.085,-1.0849,-1.0887,-1.0907,-1.0897,-1.0917,-1.0928,-1.0932,-1.0948,-1.0952,-1.097,-1.0956,-1.0962,-1.0977,-1.0982,-1.1006,-1.0978,-1.1004,-1.1005,-1.1003,-1.1056,-1.1066,-1.1109,-1.1038,-1.1039,-1.1039,0,-1.0863,-1.0878,-1.0919,-1.0931,-1.0939,-1.0957,-1.0974,-1.099,-1.1002,-1.1003,-1.1015,-1.101,-1.1033,-1.1014,-1.1047,-1.1028,-1.1038,-1.1042,-1.1043,-1.1047,-1.1025,-1.1063,-1.1122,-1.1129,-1.1048,-1.1048,-1.1047,0,-1.0899,-1.0929,-1.0958,-1.0965,-1.0979,-1.0993,-1.0999,-1.101,-1.1022,-1.1036,-1.1044,-1.1061,-1.107,-1.1084,-1.1084,-1.1069,-1.1117,-1.1097,-1.112,-1.112,-1.1132,-1.1132,-1.1195,-1.1135,-1.1135,-1.1135,-1.1135,0,-1.0946,-1.0971,-1.0974,-1.0992,-1.102,-1.1018,-1.1046,-1.1051,-1.1062,-1.108,-1.1072,-1.109,-1.1088,-1.1106,-1.1106,-1.1134,-1.1138,-1.114,-1.114,-1.1142,-1.1142,-1.115,-1.1147,-1.1137,-1.1136,-1.1136,-1.1136,0,-1.0991,-1.0994,-1.1025,-1.1036,-1.104,-1.106,-1.107,-1.1087,-1.109,-1.1113,-1.1119,-1.1123,-1.1144,-1.1145,-1.1168,-1.1168,-1.1203,-1.1198,-1.1199,-1.1199,-1.1222,-1.1221,-1.1294,-1.1305,-1.1237,-1.1237,-1.1238,0,-1.1022,-1.1042,-1.1056,-1.1068,-1.1076,-1.1095,-1.1107,-1.1106,-1.1119,-1.1135,-1.115,-1.117,-1.1186,-1.1219,-1.1224,-1.1242,-1.124,-1.1264,-1.1242,-1.1244,-1.1242,-1.1242,-1.1245,-1.1269,-1.127,-1.127,-1.1271,0,-1.1077,-1.1078,-1.1096,-1.1115,-1.1129,-1.1144,-1.1157,-1.1167,-1.1168,-1.1183,-1.1204,-1.1217,-1.1241,-1.1261,-1.1279,-1.1285,-1.1279,-1.1278,-1.1284,-1.1287,-1.1288,-1.129,-1.1213,-1.1276,-1.1276,-1.1275,-1.1275,-1.1275,-1.1118,-1.1135,-1.1148,-1.1169,-1.1179,-1.1192,-1.1209,-1.1214,-1.1232,-1.1253,-1.125,-1.1275,-1.1287,-1.131,-1.1318,-1.1337,-1.1328,-1.1337,-1.134,-1.1343,-1.1346,-1.1283,-1.134,-1.134,-1.1339,-1.1339,-1.1339,0,-1.1174,-1.1182,-1.1201,-1.1221,-1.1237,-1.1229,-1.1244,-1.1258,-1.1279,-1.1291,-1.1308,-1.1333,-1.1353,-1.136,-1.1379,-1.1393,-1.139,-1.1398,-1.1398,-1.14,-1.1352,-1.1345,-1.14,-1.14,-1.14,-1.14,-1.14,-1.14,-1.1205,-1.1235,-1.1238,-1.1273,-1.128,-1.1305,-1.1314,-1.1326,-1.1336,-1.1365,-1.1381,-1.1386,-1.1396,-1.1416,-1.1434,-1.1436,-1.1444,-1.1453,-1.1454,-1.1409,-1.1403,-1.1397,-1.1391,-1.1455,-1.1455,-1.1501,-1.1501,-1.1501]}]]